Location: Unspecified
(0.0000°N, 0.0000°E)
Time: 09:15:40
(UTC+00:00)

S-56A Canister/Altair - Pass Details

Date: 14 December 2018
Orbit: 633 x 2500 km, 38.9° (Epoch: 17 January)

Event Time Altitude Azimuth Distance (km) Brightness Sun altitude
Rises 14:25:18 0° 269° (W) 5,437 12.4 46.7°
Reaches altitude 10° 14:33:01 10° 239° (WSW) 3,886 12.2 45.1°
Maximum altitude 14:35:33 11° 224° (SW) 3,592 12.0 44.6°
Drops below altitude 10° 14:37:53 10° 208° (SSW) 3,486 11.7 44.1°
Sets 14:43:30 0° 174° (S) 3,965 11.4 42.9°
